Miscellaneous Local Product
Issued by NWS Hastings, NE

Home | Current Version | Previous Version | Graphics & Text | Print | Product List | Glossary On
Versions: 1 2 3 4 5 6 7 8 9 10 11 12 13 14 15 16 17 18 19 20 21 22 23 24 25 26 27 28 29 30 31 32 33 34 35 36 37 38 39 40 41 42 43 44 45 46 47 48 49 50
388
AXUS43 KGID 080002
MISGRI

GID CWA HOURLY WEATHER ROUNDUP
NATIONAL WEATHER SERVICE HASTINGS NE
600 PM CST SUN FEB 07 2016

NOTE: "FAIR" INDICATES FEW OR NO CLOUDS BELOW 12,000 FEET WITH NO
SIGNIFICANT WEATHER AND/OR OBSTRUCTIONS TO VISIBILITY.

...SOUTH CENTRAL NEBRASKA...

CITY           SKY/WX    TMP DP  RH WIND       PRES   REMARKS
GRAND ISLAND   PTCLDY    37  20  50 NW17      30.08R WCI  27
HASTINGS       CLEAR     38  20  48 NW24G32   30.08R WCI  27
ORD            MOCLDY    37  18  46 NW33G53   30.06R WCI  24
YORK           CLOUDY    37  27  65 NW17      30.04S WCI  28
AURORA         CLOUDY    38  23  54 NW26G36   30.06R WCI  26
LEXINGTON      CLEAR     38  14  38 NW25G37   30.14R WCI  26
HOLDREGE       CLEAR     37  19  47 NW23      30.13R WCI  25
HEBRON         CLOUDY    39  23  53 NW14      30.08S WCI  31

...NEBRASKA PANHANDLE...

CITY           SKY/WX    TMP DP  RH WIND       PRES   REMARKS
CHADRON        CLEAR     34  13  41 NW17G31   30.29R WCI  23
ALLIANCE       CLEAR     30  14  51 NW22G31   30.25R WCI  17
SCOTTSBLUFF    CLOUDY    32  16  51 NW21G30   30.32R WCI  20
SIDNEY         CLEAR     27  15  61 NW21      30.29R WCI  13

...WESTERN AND NORTH CENTRAL NEBRASKA...

CITY           SKY/WX    TMP DP  RH WIND       PRES   REMARKS
VALENTINE      CLEAR     35  18  49 NW24G43   30.12R WCI  23
AINSWORTH      PTCLDY    36  17  46 NW29G52   30.10R WCI  23
ONEILL         CLOUDY    37  21  53 NW36G44   30.03R WCI  23
BROKEN BOW     CLEAR     37  13  37 NW28G43   30.09R WCI  25
IMPERIAL       CLEAR     33  17  51 NW24G36   30.25R WCI  20
NORTH PLATTE   CLEAR     35  15  44 NW22G28   30.18R WCI  23
MCCOOK         CLEAR     36  20  52 NW24G33   30.20S WCI  24

...EASTERN NEBRASKA...

CITY           SKY/WX    TMP DP  RH WIND       PRES   REMARKS
NORFOLK        CLOUDY    36  26  67 NW25G32   29.98R WCI  24
SO SIOUX CITY  FLURRIES  35  26  69 NW25G40   29.94R WCI  23
TEKAMAH        CLOUDY    35  29  78 NW30G38   29.97R WCI  22
COLUMBUS       CLOUDY    36  21  55 NW22G30   30.02R WCI  24
ALBION         CLOUDY    37  24  60 NW29G35   30.00R WCI  24
OMAHA EPPLEY   FLURRIES  36  30  79 W25G32    29.96R WCI  24
OFFUTT AFB     FLURRIES  36  32  87 W18G28    29.96R WCI  25
MILLARD        DRIZZLE   37  30  78 W23G30    29.98R WCI  25
LINCOLN        CLOUDY    37  28  70 W18G26    30.04S WCI  27
NEBRASKA CITY  CLOUDY    36  28  75 NW23G31   30.00S WCI  24
BEATRICE       CLOUDY    37  28  70 NW18G26   30.06F WCI  26
FALLS CITY     CLOUDY    38  28  67 NW28G36   30.02R WCI  26

...NORTHERN KANSAS...

CITY           SKY/WX    TMP DP  RH WIND       PRES   REMARKS
GOODLAND       CLOUDY    33  17  51 NW24G36   30.28R WCI  20
HILL CITY      CLEAR     37  21  52 NW20G28   30.21R WCI  27
NORTON         CLEAR     36  18  48 W23G31    30.17S WCI  24
PHILLIPSBURG   CLEAR     39  21  48 W20G26    30.16S WCI  30
SMITH CENTER   CLEAR     37  21  52 NW20      30.15R WCI  27
BELOIT         CLEAR     39  25  56 W9G17     30.12F WCI  33
HAYS           CLEAR     39  18  41 NW20G26   30.20S WCI  30
RUSSELL        CLEAR     39  22  50 NW24G30   30.17S WCI  28
CONCORDIA      CLEAR     41  20  43 NW15G26   30.10R
SALINA         CLEAR     46  19  34 NW22G33   30.13S
TOPEKA         LGT RAIN  47  18  31 NW29G41   30.05R



USA.gov is the U.S. government's official web portal to all federal, state and local government web resources and services.